Regional Weather Roundup
Issued by NWS Kansas City/Pleasant Hill, MO

Home | Current Version | Previous Version | Text Only | Print | Product List | Glossary On
Versions: 1 2 3 4 5 6 7 8 9 10 11 12 13 14 15 16 17 18 19 20 21 22 23 24 25 26 27 28 29 30 31 32 33 34 35 36 37 38 39 40 41 42 43 44 45 46 47 48 49 50
000
ASUS43 KEAX 300210
RWREAX

WEATHER ROUNDUP FOR EASTERN KANSAS AND NORTHWEST MISSOURI
NATIONAL WEATHER SERVICE KANSAS CITY/PLEASANT HILL MO
900 PM CDT FRI APR 29 2016

KSZ040-057-103>105-MOZ028-029-037-043-300300-
...KANSAS CITY METROPOLITAN AREA...

CITY           SKY/WX    TMP DP  RH WIND       PRES   REMARKS
K.C. INTL      CLOUDY    51  48  89 E18       29.82R
K.C. DOWNTOWN  CLOUDY    54  50  86 E12G24    29.81R
LEES SUMMIT    LGT RAIN  53  51  93 E15G25    29.81R
OLATHE - IXD   CLOUDY    54  51  90 E18G31    29.78R
OLATHE - OJC   CLOUDY    52  51  97 E17G28    29.78F
LAWRENCE       CLOUDY    53  50  89 E13G24    29.80R

$$

MOZ001>008-011>017-020>025-030>033-038>040-044>046-053-054-300300-
...NORTHERN AND CENTRAL MISSOURI...

CITY           SKY/WX    TMP DP  RH WIND       PRES   REMARKS
ST. JOSEPH     CLOUDY    51  47  86 E14G25    29.85F
MOSBY          LGT RAIN  52  48  87 E16G24    29.82F
WARRENSBURG    TSTM      54  52  94 E13G29    29.85S
WHITEMAN AFB   TSTM      55  55 100 E14G23    29.83F
CLINTON        LGT RAIN  57  55  94 E13       29.85F
SEDALIA        LGT RAIN  58  54  86 E6        29.91R
WARSAW         NOT AVBL
CHILLICOTHE      N/A     51  48  89 NE10G17   29.91S
KIRKSVILLE     CLOUDY    49  46  90 E21G28    29.91F

$$

MOZ041-047>049-056>058-063>065-088>090-097-300300-
...EASTERN AND SOUTHERN MISSOURI...

CITY           SKY/WX    TMP DP  RH WIND       PRES   REMARKS
ST. LOUIS INTL CLOUDY    63  52  67 E12       29.96F
SPIRIT OF STL  CLOUDY    62  54  74 E8        29.95R
COLUMBIA       LGT RAIN  59  54  83 E7        29.92F
JEFFERSON CITY LGT RAIN  58  54  86 E8        29.91F
ROLLA          TSTM      56  55  97 NE10      29.91R FOG
OSAGE BEACH    CLOUDY    55  48  76 NE13      29.88R THUNDER
SPRINGFIELD    LGT RAIN  60  57  89 NE9       29.82R
BRANSON        FOG       59  59 100 E13       29.81R VSB 1/8
JOPLIN         HVY RAIN  59  58  96 E15G22    29.76F FOG
WEST PLAINS    CLOUDY    60  57  89 E8        29.86S FOG

$$

IAZ060-094-KSZ022-034>040-054-083-096-NEZ052-066-093-300300-
...KANSAS...SOUTHEAST NEBRASKA AND IOWA...

CITY           SKY/WX    TMP DP  RH WIND       PRES   REMARKS
TOPEKA         CLOUDY    53  49  86 E20G28    29.80R
MANHATTAN      CLOUDY    52  47  83 E22G36    29.76F
EMPORIA        CLOUDY    53  51  93 NE16      29.75R
CHANUTE        CLOUDY    58  53  84 E21G26    29.71R
WICHITA        CLOUDY    56  52  86 E13G24    29.70R
OMAHA          CLOUDY    48  42  80 NE9G17    29.96F
LINCOLN        CLOUDY    48  43  82 E18G24    29.92F
FALLS CITY     CLOUDY    50  46  86 E14G25    29.85F
LAMONI         CLOUDY    47  44  90 E14G22    29.93F
DES MOINES     CLOUDY    49  40  71 E12       29.99F

$$




USA.gov is the U.S. government's official web portal to all federal, state and local government web resources and services.